Regional Weather Roundup
Issued by NWS

Home | Current Version | Previous Version | Text Only | Print | Product List | Glossary On
Versions: 1 2 3 4 5 6 7 8 9 10 11 12 13 14 15 16 17 18 19 20 21 22 23 24 25 26 27 28 29 30 31 32 33 34 35 36 37 38 39 40 41 42 43 44 45 46 47 48 49 50
000
ASUS44 KOUN 290110
RWROK

WEATHER ROUNDUP FOR OKLAHOMA
NATIONAL WEATHER SERVICE NORMAN OK
700 PM CST WED JAN 28 2015

NOTE: "FAIR" INDICATES FEW OR NO CLOUDS BELOW 12,000 FEET WITH NO
      SIGNIFICANT WEATHER AND/OR OBSTRUCTIONS TO VISIBILITY.

OKZ001>007-009>012-014-015-017-290200-
NORTHWEST OKLAHOMA AND THE PANHANDLE

CITY           SKY/WX    TMP DP  RH WIND       PRES   REMARKS
GAGE           MOCLDY    58  29  33 NW5       29.97R
ENID/WOODRING  MOCLDY    57  36  44 SW6       29.89R
$$

OKZ016-021>023-033>039-044-045-290200-
SOUTHWEST OKLAHOMA

CITY           SKY/WX    TMP DP  RH WIND       PRES   REMARKS
LAWTON/REGL    CLEAR     63  45  51 W6        29.92R
LAWTON/FT SILL CLEAR     67  47  47 SW6       29.91R
FREDERICK      MOCLDY    63  38  39 W7        29.90R
CLINTON        MOCLDY    55  39  54 NW10      29.97R
HOBART         MOCLDY    55  38  52 NW9       29.94R
ALTUS AFB      CLEAR     66  37  33 NW12      29.94R
$$

OKZ018>020-024>031-290200-
CENTRAL OKLAHOMA

CITY           SKY/WX    TMP DP  RH WIND       PRES   REMARKS
OKLAHOMA CITY  PTCLDY    66  44  45 SW9       29.90R
OKC/WILEY POST CLEAR     65  45  48 W3        29.91R
OKC/TINKER AFB CLEAR     65  44  46 S8        29.90R
STILLWATER     CLEAR     64  40  41 W7        29.89R
GUTHRIE        CLEAR     67  42  40 W5        29.90R
$$

OKZ008-013-054>072-290200-
NORTHEAST OKLAHOMA

CITY           SKY/WX    TMP DP  RH WIND       PRES   REMARKS
TULSA          PTCLDY    72  42  34 S12       29.86R
TULSA/JONES    PTCLDY    68  41  37 S8        29.87R
PONCA CITY     PTCLDY    60  35  39 SW7       29.88R
BARTLESVILLE   CLEAR     66  39  37 SW3       29.86R
MUSKOGEE       CLOUDY    63  42  46 S9        29.90R
$$

OKZ032-040>043-046>053-073>077-290200-
SOUTH CENTRAL/SOUTHEAST OKLAHOMA

CITY           SKY/WX    TMP DP  RH WIND       PRES   REMARKS
ARDMORE/DWNTWN CLEAR     68  39  34 S5        29.94R
MCALESTER      CLOUDY    71  40  32 S12G20    29.93S
$$



USA.gov is the U.S. government's official web portal to all federal, state and local government web resources and services.